User: anonymous   Login
Location: Buckenweiler
(49.0667°N, 10.2500°E)
Time: 05:25:57
(UTC+00:00)
Language:

Cosmos 2074 Rocket - Orbit

View from above orbital plane
View from above orbital plane
View from above satellite
View from above satellite

Ground track
Ground track

The orbit is defined by the following mean orbital elements,

1 20578U          26074.94157021 +.00000000 +00000-0 +34531-4 0 00003
2 20578  82.9457 148.5977 0013856  51.1261 125.5222 13.76637126    00
Epoch (UTC): 15 March 2026 22:35:51
Eccentricity: 0.0013856
inclination: 82.9457°
perigee height: 966 km
apogee height: 986 km
right ascension of ascending node: 148.5977°
argument of perigee: 51.1261°
revolutions per day: 13.76637126
mean anomaly at epoch: 125.5222°

The dashed part of the orbit path shows where the satellite is in the earth's shadow,  

DLR